Location: Augsburg
(48.3836°N, 10.8929°E)
Time: 08:42:33
(UTC+02:00)

ISS - Visible Passes

Search period start: 24 September 2017 00:00
Search period end: 04 October 2017 00:00
Orbit: 401 x 407 km, 51.6° (Epoch: 24 September)

Date Brightness Start Highest point End Pass type
(mag) Time Alt. Az. Time Alt. Az. Time Alt. Az.
25 Sep -1.3 21:18:58 10° SW 21:19:31 14° SW 21:19:31 14° SW visible
26 Sep -2.7 20:27:06 10° SSW 20:29:53 26° SE 20:29:53 26° SE visible
27 Sep -1.9 19:35:40 10° S 19:37:45 16° SE 19:39:49 10° E visible
27 Sep -2.8 21:10:31 10° WSW 21:12:44 40° SW 21:12:44 40° SW visible
28 Sep -3.6 20:18:18 10° SW 20:21:29 49° SSE 20:22:45 30° E visible
28 Sep -0.8 21:54:45 10° W 21:55:24 15° W 21:55:24 15° W visible
29 Sep -3.4 21:02:16 10° W 21:05:17 63° NW 21:05:17 63° NW visible
30 Sep -3.9 20:09:51 10° WSW 20:13:08 88° SSE 20:15:03 23° ENE visible
30 Sep -1.0 21:46:37 10° WNW 21:47:42 18° WNW 21:47:42 18° WNW visible
01 Oct -3.2 20:54:06 10° W 20:57:19 50° N 20:57:22 50° N visible
02 Oct -3.5 20:01:35 10° W 20:04:50 61° NNW 20:07:01 19° ENE visible
02 Oct -1.1 21:38:25 10° WNW 21:39:39 20° WNW 21:39:39 20° WNW visible
03 Oct -3.1 20:45:54 10° WNW 20:49:05 45° N 20:49:14 44° N visible
